Total_Precipitation_Accumulation
1.41 1.43 1.39 1.42 1.52 1.50 1.43 1.44 1.50 1.50 1.49 1.57 1.69 1.82 1.90 1.94 1.95 1.96 1.91 1.87 1.88 1.84 1.77 1.71 1.66 1.63 1.66 1.61 1.59 1.64 1.70 1.78 1.73 1.26 1.02 1.02 1.13 1.18 1.20 1.12 1.05 1.06 1.08
1.29 1.38 1.31 1.29 1.43 1.48 1.39 1.33 1.37 1.39 1.30 1.31 1.39 1.47 1.55 1.60 1.64 1.68 1.70 1.70 1.70 1.71 1.68 1.66 1.60 1.57 1.57 1.56 1.59 1.61 1.63 1.64 1.68 1.47 1.16 1.05 1.07 1.09 1.11 1.11 1.05 1.00 0.95
1.20 1.25 1.22 1.18 1.25 1.31 1.35 1.33 1.30 1.35 1.31 1.23 1.20 1.24 1.28 1.33 1.38 1.40 1.43 1.46 1.48 1.48 1.53 1.56 1.54 1.58 1.62 1.57 1.53 1.50 1.45 1.45 1.49 1.48 1.26 1.05 1.00 1.00 1.07 1.08 1.02 0.98 0.91
1.08 1.09 1.07 1.07 1.08 1.10 1.14 1.18 1.16 1.17 1.22 1.25 1.15 1.08 1.11 1.16 1.22 1.28 1.31 1.33 1.35 1.39 1.42 1.45 1.47 1.51 1.51 1.51 1.54 1.51 1.45 1.42 1.41 1.43 1.34 1.19 1.10 1.06 1.13 1.17 1.15 1.05 1.00
1.03 1.05 1.04 1.00 0.97 0.97 0.99 0.97 0.98 1.02 1.08 1.15 1.15 1.08 1.03 1.06 1.12 1.17 1.22 1.25 1.27 1.31 1.33 1.35 1.40 1.52 1.58 1.55 1.51 1.49 1.52 1.59 1.58 1.58 1.47 1.28 1.13 1.07 1.08 1.05 1.11 1.11 1.10
0.92 0.98 1.00 0.98 0.94 0.92 0.90 0.90 0.88 0.92 0.99 1.08 1.13 1.14 1.12 1.14 1.35 1.35 1.26 1.24 1.27 1.27 1.27 1.23 1.25 1.33 1.35 1.42 1.45 1.43 1.50 1.64 1.75 1.74 1.56 1.28 1.03 0.92 0.91 1.00 1.13 1.23 1.18
0.75 0.83 0.88 0.88 0.89 0.89 0.88 0.91 0.97 1.00 1.04 1.12 1.19 1.23 1.23 1.30 1.44 1.36 1.34 1.21 1.19 1.20 1.19 1.16 1.13 1.12 1.17 1.07 1.17 1.25 1.28 1.41 1.49 1.41 1.33 1.11 0.97 0.92 1.04 1.16 1.15 1.16 1.03
0.77 0.80 0.80 0.84 0.88 0.92 0.98 1.05 1.14 1.21 1.23 1.29 1.37 1.39 1.39 1.40 1.42 1.35 1.36 1.17 1.08 1.04 0.99 0.93 0.92 0.90 0.92 0.99 1.05 1.13 1.06 1.03 1.06 1.03 1.00 0.95 0.93 0.97 1.14 1.32 1.34 1.34 1.15
0.81 0.86 0.88 0.94 1.02 1.07 1.16 1.23 1.26 1.34 1.34 1.31 1.31 1.31 1.29 1.26 1.27 1.22 1.20 1.06 0.99 0.92 0.84 0.79 0.79 0.77 0.91 1.08 1.08 1.12 0.98 0.88 0.95 1.04 1.11 1.12 1.21 1.24 1.27 1.47 1.63 1.72 1.51
0.91 1.01 1.02 1.04 1.10 1.12 1.15 1.13 1.11 1.12 1.11 1.07 1.03 1.01 0.99 0.96 1.00 1.00 1.03 0.97 0.92 0.83 0.76 0.73 0.82 0.80 0.95 1.08 1.02 1.04 1.00 0.84 0.85 0.93 0.99 1.03 1.02 1.09 1.23 1.22 1.41 1.73 1.59
1.02 1.08 1.06 1.01 1.03 1.01 0.95 0.90 0.85 0.81 0.77 0.75 0.74 0.72 0.70 0.70 0.74 0.79 0.88 0.91 0.95 0.91 0.81 0.74 0.73 0.89 0.98 1.05 1.01 0.93 0.97 0.99 0.99 1.02 1.01 0.98 0.99 1.02 1.06 1.03 1.12 1.52 1.77
0.93 0.91 0.85 0.76 0.73 0.70 0.68 0.69 0.68 0.66 0.67 0.66 0.63 0.62 0.58 0.56 0.61 0.66 0.75 0.86 0.93 0.94 0.87 0.76 0.76 0.94 0.97 0.97 0.95 0.97 1.07 1.08 0.99 1.08 1.13 1.08 1.01 0.95 0.93 0.94 0.98 1.08 1.24
0.65 0.65 0.63 0.59 0.57 0.57 0.58 0.61 0.64 0.63 0.64 0.64 0.62 0.64 0.62 0.56 0.59 0.68 0.73 0.82 0.90 0.88 0.85 0.88 0.92 0.95 0.93 0.87 0.92 1.00 1.01 0.95 0.97 1.05 1.05 0.98 0.93 0.91 0.94 1.02 1.07 1.10 1.12
0.53 0.55 0.57 0.58 0.54 0.55 0.57 0.58 0.64 0.67 0.68 0.67 0.65 0.66 0.64 0.61 0.60 0.66 0.74 0.81 0.88 0.90 0.89 0.88 0.86 0.86 0.89 0.88 0.87 0.89 0.89 0.95 1.05 1.07 1.01 0.96 0.97 1.04 1.10 1.12 1.18 1.19 1.28
0.53 0.57 0.61 0.63 0.60 0.59 0.59 0.61 0.66 0.71 0.79 0.86 0.83 0.78 0.79 0.75 0.71 0.84 0.92 0.93 0.96 0.99 1.03 0.96 0.87 0.83 0.86 0.85 0.83 0.83 0.87 0.97 1.07 1.06 1.10 1.12 1.11 1.11 1.11 1.11 1.22 1.27 1.33
0.56 0.57 0.60 0.64 0.65 0.64 0.60 0.60 0.66 0.70 0.74 0.77 0.79 0.81 0.77 0.79 0.82 0.88 0.91 0.93 1.00 1.08 1.13 1.00 0.86 0.82 0.83 0.83 0.84 0.86 0.88 0.94 1.02 1.11 1.19 1.23 1.26 1.24 1.19 1.13 1.19 1.31 1.30
0.61 0.62 0.62 0.64 0.67 0.68 0.65 0.64 0.66 0.69 0.73 0.73 0.73 0.75 0.77 0.81 0.84 0.85 0.88 0.94 1.00 1.09 1.06 0.89 0.79 0.76 0.77 0.81 0.86 0.90 0.91 0.90 1.01 1.17 1.28 1.33 1.37 1.35 1.31 1.28 1.24 1.26 1.23
0.58 0.62 0.65 0.64 0.69 0.73 0.75 0.72 0.69 0.69 0.69 0.66 0.69 0.76 0.79 0.82 0.84 0.86 0.90 0.97 0.98 0.97 0.89 0.84 0.82 0.81 0.84 0.89 0.92 0.96 0.98 1.00 1.07 1.14 1.23 1.33 1.46 1.51 1.44 1.34 1.29 1.29 1.30
0.58 0.63 0.65 0.66 0.69 0.75 0.79 0.82 0.78 0.73 0.71 0.68 0.65 0.71 0.81 0.86 0.89 0.90 0.91 0.88 0.85 0.83 0.80 0.81 0.84 0.89 0.94 0.98 1.00 1.03 1.08 1.12 1.12 1.19 1.22 1.29 1.43 1.58 1.50 1.34 1.35 1.35 1.41
0.57 0.69 0.74 0.74 0.74 0.77 0.78 0.80 0.81 0.78 0.75 0.70 0.69 0.75 0.84 0.92 0.88 0.85 0.85 0.83 0.80 0.77 0.77 0.84 0.89 0.97 1.05 1.11 1.13 1.14 1.15 1.12 1.15 1.23 1.24 1.26 1.34 1.50 1.53 1.44 1.43 1.45 1.38
0.55 0.62 0.71 0.69 0.70 0.75 0.78 0.81 0.84 0.84 0.79 0.73 0.72 0.81 1.00 1.04 0.93 0.84 0.84 0.88 0.91 0.88 0.88 0.91 0.94 1.00 1.08 1.14 1.18 1.18 1.16 1.10 1.12 1.25 1.31 1.32 1.37 1.43 1.39 1.46 1.47 1.47 1.49
0.52 0.57 0.62 0.66 0.69 0.75 0.82 0.83 0.83 0.83 0.80 0.76 0.72 0.77 0.89 0.88 0.82 0.80 0.82 0.87 0.90 0.93 0.96 1.05 1.03 0.98 1.08 1.23 1.32 1.35 1.23 1.08 1.06 1.20 1.32 1.32 1.37 1.42 1.47 1.53 1.51 1.50 1.49
0.51 0.54 0.57 0.61 0.66 0.73 0.76 0.74 0.75 0.78 0.79 0.77 0.75 0.76 0.78 0.78 0.76 0.75 0.78 0.82 0.86 0.88 0.91 0.99 1.05 0.98 0.96 1.11 1.28 1.53 1.56 1.31 1.19 1.36 1.63 1.63 1.53 1.53 1.57 1.55 1.44 1.43 1.36
0.50 0.54 0.57 0.59 0.63 0.69 0.71 0.71 0.70 0.72 0.73 0.74 0.74 0.76 0.77 0.77 0.77 0.76 0.78 0.81 0.84 0.85 0.87 0.94 0.98 0.98 0.97 1.07 1.16 1.26 1.39 1.51 1.79 1.99 2.08 2.12 1.83 1.57 1.52 1.48 1.37 1.33 1.32
0.50 0.53 0.58 0.62 0.66 0.67 0.68 0.68 0.67 0.67 0.68 0.69 0.71 0.73 0.73 0.74 0.74 0.74 0.75 0.78 0.80 0.81 0.81 0.85 0.92 0.95 0.95 0.99 1.05 1.10 1.20 1.46 1.84 2.11 2.13 2.02 1.76 1.54 1.50 1.45 1.36 1.34 1.31
0.53 0.56 0.59 0.63 0.66 0.67 0.68 0.67 0.64 0.64 0.67 0.66 0.66 0.68 0.69 0.70 0.69 0.69 0.71 0.74 0.76 0.75 0.74 0.76 0.81 0.88 0.91 0.92 0.89 0.98 1.18 1.32 1.38 1.49 1.82 1.97 1.78 1.52 1.47 1.52 1.40 1.35 1.31